SCP
0 0 0 0 0 0 0 0 0 0 0 0 0 0 0 0 0 0 0 0 0 0
0 0 0 0 0 0 0 0 0 0 0 0 0 0 0 0 0 0 0 0 0 0
0 0 0 0 0 0 0 0 0 0 0 0 0 0 0 0 0 0 0 0 0 0
0 0 0 0 0 0 0 0 0 0 0 0 0 0 0 0 0 0 0 0 0 0
0 0 0 0 0 0 0 0 0 0 0 0 0 0 0 0 0 0 0 0 0 0
0 0 0 0 0 0 0 0 0 0 0 0 0 0 0 0 0 0 0 0 0 0
0 0 0 0 0 0 0 0 0 0 0 0 0 0 0 0 0 0 0 0 0 0
0 0 0 0 0 0 0 0 0 0 0 0 0 0 0 0 0 0 0 0 0 0
0 0 0 0 0 0 0 0 0 0 0 0 0 0 0 0 0 0 0 0 0 0
0 0 0 0 0 0 0 0 0 0 0 0 0 0 0 0 0 0 0 0 0 0
0 0 -0 -0 0 0 0 0 0 0 0 0 0 0 0 0 0 0 0 0 0 0
0 0 0 0 0 0 0 0 0 0 0 0 0 0 0 0 0 0 0 0 0 0
0 0 0 0 0 0 0 0 0 0 0 0 0 0 0 0 0 0 0 0 0 0
0 0 0 0 0 0 0 0 0 0 0 0 0 0 0 0 0 0 0 0 0 0
Wind_Speed_500mb
44 43 51 49 41 32 26 34 41 42 30 32 28 24 25 29 34 39 41 45 45 40
39 38 33 27 36 37 49 45 35 33 36 29 23 22 29 33 34 38 45 48 40 35
35 33 34 38 45 47 37 32 36 36 31 26 21 24 29 33 38 42 45 39 36 33
32 39 44 44 49 38 33 35 36 32 25 20 22 26 31 35 38 42 40 34 32 32
36 38 44 39 35 38 38 38 32 24 18 19 24 29 32 35 38 38 35 33 31 32
41 38 45 44 40 39 35 30 21 15 18 24 28 31 32 35 37 36 33 33 32 31
45 44 47 41 42 38 28 17 15 18 20 25 28 29 33 36 37 31 31 32 34 30
45 54 53 50 40 28 19 15 12 19 23 24 26 32 35 37 31 30 33 35 33 30
51 49 49 38 29 19 11 11 13 16 21 26 30 32 32 30 30 33 35 33 34 33
34 29 27 23 17 9 10 10 15 18 19 21 23 26 27 32 34 32 31 32 33 33
32 27 19 14 8 4 7 6 9 10 15 19 25 30 34 35 31 28 27 29 31 32
26 20 12 5 2 1 3 5 11 17 18 23 28 32 34 33 30 29 29 28 30 32
21 13 8 8 8 7 7 14 16 17 20 21 25 31 35 36 35 35 33 32 34 35
15 10 10 11 13 11 12 15 18 19 22 23 26 31 37 41 42 43 40 35 38 44
Wind_Direction_500mb
228 234 239 238 229 205 218 191 179 197 200 200 222 252 277 298 312 325 333 334 335 329
247 235 219 201 187 195 178 181 194 184 187 210 233 266 288 304 318 327 332 329 329 331
232 215 194 184 190 189 186 189 178 191 204 216 249 281 296 311 321 328 328 330 331 336
197 191 186 180 184 192 183 175 182 199 214 247 279 294 302 314 322 328 327 334 337 334
167 180 177 178 198 179 178 178 191 207 239 272 286 295 310 318 325 327 334 334 331 335
189 184 190 194 174 172 178 183 195 232 263 282 296 305 313 321 326 333 334 333 333 327
203 195 181 174 170 171 176 191 223 257 278 291 305 308 316 323 333 335 337 334 327 319
164 166 163 161 161 171 188 218 257 279 297 308 304 312 320 325 332 343 334 336 329 322
143 145 149 157 161 180 207 253 285 303 303 307 312 319 325 332 338 337 336 334 334 329
153 151 149 162 172 205 250 279 291 308 319 323 329 329 336 335 336 337 333 332 330 326
171 176 173 181 167 205 257 296 338 349 355 352 343 336 332 339 342 344 335 333 333 332
161 153 151 132 110 306 338 25 28 15 1 349 339 334 339 348 347 351 354 357 349 341
137 107 123 137 109 87 46 20 17 8 0 358 356 356 1 1 359 354 358 354 351 341
147 127 131 91 73 52 38 36 31 24 18 14 18 19 16 14 11 4 0 357 354 353
Wind_Speed_850mb
44 43 51 49 41 32 26 34 41 42 30 32 28 24 25 29 34 39 41 45 45 40
39 38 33 27 36 37 49 45 35 33 36 29 23 22 29 33 34 38 45 48 40 35
35 33 34 38 45 47 37 32 36 36 31 26 21 24 29 33 38 42 45 39 36 33
32 39 44 44 49 38 33 35 36 32 25 20 22 26 31 35 38 42 40 34 32 32
36 38 44 39 35 38 38 38 32 24 18 19 24 29 32 35 38 38 35 33 31 32
41 38 45 44 40 39 35 30 21 15 18 24 28 31 32 35 37 36 33 33 32 31
45 44 47 41 42 38 28 17 15 18 20 25 28 29 33 36 37 31 31 32 34 30
45 54 53 50 40 28 19 15 12 19 23 24 26 32 35 37 31 30 33 35 33 30
51 49 49 38 29 19 11 11 13 16 21 26 30 32 32 30 30 33 35 33 34 33
34 29 27 23 17 9 10 10 15 18 19 21 23 26 27 32 34 32 31 32 33 33
32 27 19 14 8 4 7 6 9 10 15 19 25 30 34 35 31 28 27 29 31 32
26 20 12 5 2 1 3 5 11 17 18 23 28 32 34 33 30 29 29 28 30 32
21 13 8 8 8 7 7 14 16 17 20 21 25 31 35 36 35 35 33 32 34 35
15 10 10 11 13 11 12 15 18 19 22 23 26 31 37 41 42 43 40 35 38 44
Wind_Direction_850mb
228 234 239 238 229 205 218 191 179 197 200 200 222 252 277 298 312 325 333 334 335 329
247 235 219 201 187 195 178 181 194 184 187 210 233 266 288 304 318 327 332 329 329 331
232 215 194 184 190 189 186 189 178 191 204 216 249 281 296 311 321 328 328 330 331 336
197 191 186 180 184 192 183 175 182 199 214 247 279 294 302 314 322 328 327 334 337 334
167 180 177 178 198 179 178 178 191 207 239 272 286 295 310 318 325 327 334 334 331 335
189 184 190 194 174 172 178 183 195 232 263 282 296 305 313 321 326 333 334 333 333 327
203 195 181 174 170 171 176 191 223 257 278 291 305 308 316 323 333 335 337 334 327 319
164 166 163 161 161 171 188 218 257 279 297 308 304 312 320 325 332 343 334 336 329 322
143 145 149 157 161 180 207 253 285 303 303 307 312 319 325 332 338 337 336 334 334 329
153 151 149 162 172 205 250 279 291 308 319 323 329 329 336 335 336 337 333 332 330 326
171 176 173 181 167 205 257 296 338 349 355 352 343 336 332 339 342 344 335 333 333 332
161 153 151 132 110 306 338 25 28 15 1 349 339 334 339 348 347 351 354 357 349 341
137 107 123 137 109 87 46 20 17 8 0 358 356 356 1 1 359 354 358 354 351 341
147 127 131 91 73 52 38 36 31 24 18 14 18 19 16 14 11 4 0 357 354 353